Find Starlink 31351

NORAD ID: 58972 Int'l Des: 2024-031 Owner: SPXS Country: US Constellation: starlink operational
LEOCIRCULAR

实时位置

正在加载3D地球...

关于 Starlink 31351

正在加载描述...

即将过境

Passes for default location (London). Set your location on the main map for personalized predictions.

高度历史

Loading altitude history...

两行轨道根数

1 58972U 24031H 26125.44466789 .00001741 00000-0 70888-4 0 9993
2 58972 53.1613 32.9981 0001166 87.0840 273.0294 15.30202939125217
Epoch: May 5, 2026 • Age: 11 hours

当前状态

高度 480.4 km
速度 7.63 km/s
星下点 50.84°N, 50.69°W
发射日期 Feb 15, 2024
运行时间 2.2 years
类型 internet

技术详情

分类 Payload
质量 730.00 kg
干质量 700.00 kg
总质量 730.00 kg
长度 0.30 m
直径 4.10 m
跨度 29.00 m
形状 Box + pan
制造商 SPXS
平台类型 Starlink V2M
阶段状态 In Orbit
所有者/国家 SPXS/US

Most Searched